Overview Statistics Trail Chart Weather Telemetry Raw packets
 

This is the latest recevied weather packets stored in our database for station/object LU3HGB-WX. If no packets are shown the sender has not sent any weather packets the latest 10 day(s).

<< 67 68 69 70 71 72 73 >>
Time Temp. Humidity Pressure Rain* Wind** Luminosity Snow
1788211960 16.11° C 56% 1018 hPa 0 mm - 41 W/m² -
1788211660 16.11° C 56% 1018 hPa 0 mm - 64 W/m² -
1788211359 16.67° C 55% 1018 hPa 0 mm - 36 W/m² -
1788211067 17.22° C 54% 1018 hPa 0 mm - 35 W/m² -
1788210760 17.22° C 54% 1018 hPa 0 mm - 37 W/m² -
1788210460 17.78° C 54% 1018 hPa 0 mm - 42 W/m² -
1788210159 17.78° C 54% 1018 hPa 0 mm - 50 W/m² -
1788209860 18.33° C 51% 1018 hPa 0 mm - 120 W/m² -
1788209560 18.89° C 51% 1017 hPa 0 mm - 204 W/m² -
1788209260 18.89° C 49% 1017 hPa 0 mm - 224 W/m² -
1788208959 19.44° C 48% 1017 hPa 0 mm - 239 W/m² -
1788208674 20° C 44% 1017 hPa 0 mm - 258 W/m² -
1788208359 20.56° C 40% 1017 hPa 0 mm - 278 W/m² -
1788208060 20.56° C 36% 1016 hPa 0 mm - 302 W/m² -
1788207761 20.56° C 37% 1016 hPa 0 mm - 326 W/m² -
1788207460 20.56° C 36% 1016 hPa 0 mm - 340 W/m² -
1788207159 20.56° C 36% 1016 hPa 0 mm - 364 W/m² -
1788206859 20.56° C 34% 1016 hPa 0 mm - 385 W/m² -
1788206562 20.56° C 35% 1016 hPa 0 mm - 405 W/m² -
1788206259 21.11° C 36% 1016 hPa 0 mm - 426 W/m² -
1788205961 21.11° C 34% 1016 hPa 0 mm - 450 W/m² -
1788205663 21.11° C 35% 1016 hPa 0 mm - 464 W/m² -
1788205360 21.11° C 36% 1016 hPa 0 mm - 485 W/m² -
1788205059 21.11° C 35% 1016 hPa 0 mm - 504 W/m² -
1788204759 21.11° C 38% 1016 hPa 0 mm - 524 W/m² -

* Rain latest hour (hover to see other rain measurements)
** Current wind speed in m/s (hover to see current wind gust speed)